Regional Weather Roundup
Issued by NWS Charleston, SC

Current Version | Previous Version | Graphics & Text | Print | Product List | Glossary On
Versions: 1 2 3 4 5 6 7 8 9 10 11 12 13 14 15 16 17 18 19 20 21 22 23 24 25 26 27 28 29 30 31 32 33 34 35 36 37 38 39 40 41 42 43 44 45 46 47 48 49 50
000 ASUS42 KCHS 281627 RWRCHS REGIONAL WEATHER ROUNDUP NATIONAL WEATHER SERVICE CHARLESTON SC 1200 PM EDT FRI AUG 28 2015 NOTE: "FAIR" INDICATES FEW OR NO CLOUDS BELOW 12,000 FEET WITH NO SIGNIFICANT WEATHER AND/OR OBSTRUCTIONS TO VISIBILITY. NOT ALL STATIONS ARE QUALITY CONTROLLED BY THE NATIONAL WEATHER SERVICE. USE DATA WITH CAUTION...ESPECIALLY DEWPOINT OBSERVATIONS. SCZ027-030-031-034>040-042>050-281700- ...SOUTHEAST SOUTH CAROLINA... CITY SKY/WX TMP DP RH WIND PRES REMARKS N CHARLESTON PTSUNNY 85 72 65 NE9 30.13R HX 91 WATERFRONT PRK N/A 81 74 79 N8 30.10R MOUNT PLEASANT PTSUNNY 82 73 74 N3 30.12S JOHNS ISLAND PTSUNNY 86 73 66 N6G13 30.12S HX 93 PINOPOLIS N/A 81 72 74 N7 30.08R MONCKS CORNER PTSUNNY 82 70 65 N3 30.14R SUMMERVILLE FAIR 82 72 69 NE5 30.15R BEAUFORT MCAS PTSUNNY 83 73 72 VRB6 30.13S BEAUFORT ARPT FAIR 82 73 74 NE9 30.11F HILTON HEAD IS PTSUNNY 79 73 83 N10 30.13S WALTERBORO CLOUDY 84 70 61 NE9 30.14F ALLENDALE CLOUDY 81 72 74 N8 30.14F ...SOUTHERN MIDLANDS AND PEE DEE... CITY SKY/WX TMP DP RH WIND PRES REMARKS GEORGETOWN NOT AVBL KINGSTREE NOT AVBL ORANGEBURG PTSUNNY 82 68 62 E12 30.16R BARNWELL FAIR 82 72 69 NE7 30.16F AIKEN PTSUNNY 79 64 61 NE12 30.21S MANNING FAIR 81 64 57 NE8 30.15F COLUMBIA PTSUNNY 83 65 54 E9 30.17R SUMTER PTSUNNY 81 66 61 NE13 30.16R FLORENCE PTSUNNY 81 66 60 E12 30.18R MYRTLE BEACH PTSUNNY 84 70 61 NE14 30.15S N MYRTLE BEACH PTSUNNY 83 69 62 NE12 30.13S $$ GAZ063-065-086>088-099>101-113>116-118-119-134>141-150-281700- ...SOUTHEAST GEORGIA... CITY SKY/WX TMP DP RH WIND PRES REMARKS SAVANNAH ARPT PTSUNNY 80 73 79 E7 30.12S HUNTER AAF CLOUDY 81 77 87 VRB7 30.09S FORT STEWART CLOUDY 81 74 78 VRB3 30.10S STATESBORO CLOUDY 78 78 100 NE5 30.14S SYLVANIA PTSUNNY 81 75 81 E6 30.15S CLAXTON NOT AVBL ...CSRA...CENTRAL AND FAR SOUTHEAST GEORGIA... CITY SKY/WX TMP DP RH WIND PRES REMARKS THOMSON CLOUDY 79 72 81 MISG 30.22S AUGUSTA-BUSH CLOUDY 79 69 71 N6 30.16R AUGUSTA-DANIEL CLOUDY 80 68 66 NE9 30.18S SWAINSBORO CLOUDY 82 73 74 NE8 30.16S VIDALIA PTSUNNY 82 72 69 NE7 30.12F EASTMAN PTSUNNY 85 74 70 E7 30.14S HX 93 HAZLEHURST PTSUNNY 84 75 75 E7 30.10F HX 91 ALMA PTSUNNY 84 74 71 NE9 30.09F HX 91 WAYCROSS PTSUNNY 89 78 71 E6 30.08S HX 103 JESUP CLOUDY 84 77 79 E9 30.10S HX 94 BAXLEY PTSUNNY 84 75 74 E7 30.09F HX 92 BRUNSWICK CLOUDY 79 72 78 NW12G18 30.11R THUNDER SAINT SIMONS PTSUNNY 87 74 64 E13 30.08S HX 95 $$ SCZ027-028-034-036>038-045-046-048>050-GAZ119-141-281700- ...LAKE AND SUPPLEMENTAL COASTAL OBSERVATIONS... STATION/POSITION TIME TEMP WIND PRES WAVE SWELL AIR SEA DIR/SP/G HT/PER HT/PER/DIR (UTC) (F) (DEG/KT/KT) (MB) (FT/S) (FT/S/D) UPR LAKE MARION NOT AVBL WINYAH BAY 1545 80 50/ 12 1019.0S LAKE MURRAY 1500 78 50/ 2/ 7 1021.3R ACE BASIN NERRS 1515 83 20/ 2 1020.0 FORT PULASKI 1600 78 85 20/ 9/ 12 1020.1S SAPELO ISLAND 1600 82 50/ 7 1019.0S $$ ANZ835-935-AMZ111-154-330-350-352-354-370-450-454-472-281700- ...C-MAN AND BUOY OBSERVATIONS... STATION/POSITION TIME TEMP WIND PRES WAVE SWELL AIR SEA DIR/SP/G HT/PER HT/PER/DIR (UTC) (F) (DEG/KT/KT) (MB) (FT/S) (FT/S/D) BUOY 41004 1550 81 85 60/ 8/ 8 1019.0R 3/ 8 2/ 8 BUOY 41008 1550 83 85 50/ 12/ 14 1019.2R 2/ 9 2/100/ 9 FOLLY BEACH CMAN 1600 80 40/ 11/ 13 1020.1R CAPERS NEARSHORE NOT AVBL FRIPP NEARSHORE NOT AVBL STATION/POSITION TIME TEMP WIND PRES WAVE SWELL AIR SEA DIR/SP/G HT/PER HT/PER/DIR (UTC) (F) (DEG/KT/KT) (MB) (FT/S) (FT/S/D) 5E ST. MARYS GA 1521 86 N/A 2/10 2/120/13 FRYING PAN BUOY 1550 81 81 70/ 16/ 17 1020.1R 4/ 5 2/130/ 9 BUOY 41025 1550 80 82 30/ 16/ 19 1020.3R 5/ 5 3/ 90/ 8 CAPE LOOKOUT NC 1600 79 30/ 18/ 22 1020.6R BUOY 41002 1550 82 84 180/ 4/ 6 1018.8R 3/ 8 3/130/ 8 BUOY 41010 1520 84 86 CALM / 2 1018.6R ST AUGUSTINE FL 1600 82 85 110/ 5/ 6 1019.1R $$

USA.gov is the U.S. government's official web portal to all federal, state and local government web resources and services.